Location: Crescent
(42.8242°N, 73.7329°W)
Time: 06:01:06
(UTC+00:00)

Transit 4A - Pass Details

Date: 23 February 2026
Orbit: 864 x 977 km, 66.8° (Epoch: 9 March)

Event Time Altitude Azimuth Distance (km) Brightness Sun altitude
Rises 09:50:55 0° 275° (W) 3,492 - -20.8°
Reaches altitude 10° 09:54:57 10° 302° (WNW) 2,580 - -20.0°
Exits shadow 09:56:59 13° 322° (NW) 2,384 9.7 -19.7°
Maximum altitude 09:57:42 13° 330° (NNW) 2,373 9.8 -19.5°
Drops below altitude 10° 10:00:29 10° 358° (N) 2,621 10.3 -19.0°
Sets 10:04:41 0° 25° (NNE) 3,596 11.4 -18.2°
